timestamp,surface_pressure_avg,surface_temp_avg,battery_voltage,lat,long
2024-05-02 00:09:00+00:00,232.8881,2.9,12.33,47.84626,-54.09684
2024-05-02 00:19:00+00:00,230.7181,2.48,12.33,47.84626,-54.09684
2024-05-02 00:29:00+00:00,229.8714,1.97,12.33,47.84626,-54.09684
2024-05-02 00:39:00+00:00,230.4315,1.7,12.33,47.84626,-54.09684
2024-05-02 00:49:00+00:00,231.2764,1.6,12.33,47.84626,-54.09684
2024-05-02 00:59:00+00:00,230.5764,1.6,12.33,47.84626,-54.09684
2024-05-02 01:09:00+00:00,229.6513,1.7,12.33,47.84626,-54.09684
2024-05-02 01:19:00+00:00,230.6964,1.9,12.33,47.84626,-54.09684
2024-05-02 01:29:00+00:00,234.8597,1.9,12.33,47.84626,-54.09684
2024-05-02 01:39:00+00:00,239.0614,1.8,12.33,47.84626,-54.09684
2024-05-02 01:49:00+00:00,242.843,1.8,12.33,47.84626,-54.09684
2024-05-02 01:59:00+00:00,250.2064,1.8,12.33,47.84626,-54.09684
2024-05-02 02:09:00+00:00,257.9847,2.13,12.33,47.84626,-54.09684
2024-05-02 02:19:00+00:00,262.8314,2.39,12.33,47.84626,-54.09684
2024-05-02 02:29:00+00:00,265.4281,2.17,12.33,47.84626,-54.09684
2024-05-02 02:39:00+00:00,273.1947,1.9,12.33,47.84626,-54.09684
2024-05-02 02:49:00+00:00,277.7981,1.9,12.33,47.84626,-54.09684
2024-05-02 02:59:00+00:00,280.378,1.92,12.33,47.84626,-54.09684
2024-05-02 03:09:00+00:00,283.6347,1.98,12.33,47.84626,-54.09684
2024-05-02 03:19:01+00:00,291.8914,1.99,12.25,47.84626,-54.09684
2024-05-02 03:29:01+00:00,295.993,2.0,12.25,47.84626,-54.09684
2024-05-02 03:39:01+00:00,301.1997,2.01,12.25,47.84626,-54.09684
2024-05-02 03:49:01+00:00,305.7013,2.05,12.25,47.84626,-54.09684
2024-05-02 03:59:01+00:00,311.7147,2.0,12.25,47.84626,-54.09684
2024-05-02 04:09:01+00:00,316.1929,1.94,12.25,47.84626,-54.09684
2024-05-02 04:19:00+00:00,319.2128,1.95,12.25,47.84626,-54.09684
2024-05-02 04:29:00+00:00,321.7914,2.0,12.25,47.84626,-54.09684
2024-05-02 04:39:00+00:00,323.3714,2.03,12.25,47.84626,-54.09684
2024-05-02 04:49:00+00:00,326.813,2.26,12.25,47.84626,-54.09684
2024-05-02 04:59:00+00:00,328.1163,2.49,12.25,47.84626,-54.09684
2024-05-02 05:09:00+00:00,329.7064,2.56,12.25,47.84626,-54.09684
2024-05-02 05:19:00+00:00,335.0697,2.59,12.25,47.84626,-54.09684
2024-05-02 05:29:00+00:00,340.1962,2.5,12.25,47.84626,-54.09684
2024-05-02 05:39:00+00:00,339.5779,2.5,12.25,47.84626,-54.09684
2024-05-02 05:49:00+00:00,337.8946,2.4,12.25,47.84626,-54.09684
2024-05-02 05:59:00+00:00,342.7630000000001,2.4,12.25,47.84626,-54.09684
2024-05-02 06:09:00+00:00,344.7713,2.4,12.25,47.84626,-54.09684
2024-05-02 06:19:01+00:00,340.8345,2.4,12.25,47.84626,-54.09684
2024-05-02 06:29:01+00:00,341.2129,2.4,12.25,47.84626,-54.09684
2024-05-02 06:39:01+00:00,343.0397,2.4,12.25,47.84626,-54.09684
2024-05-02 06:49:01+00:00,339.1813,2.4,12.25,47.84626,-54.09684
2024-05-02 06:59:01+00:00,333.6980000000001,2.4,12.25,47.84626,-54.09684
2024-05-02 07:09:01+00:00,336.5563,2.4,12.25,47.84626,-54.09684
2024-05-02 07:19:00+00:00,334.3546,2.4,12.25,47.84626,-54.09684
2024-05-02 07:29:00+00:00,326.1346,2.48,12.25,47.84626,-54.09684
2024-05-02 07:39:00+00:00,322.5563,2.5,12.25,47.84626,-54.09684
2024-05-02 07:49:00+00:00,323.3547,2.5,12.25,47.84626,-54.09684
2024-05-02 07:59:00+00:00,316.8798,2.5,12.25,47.84626,-54.09684
2024-05-02 08:09:00+00:00,309.2031,2.5,12.25,47.84626,-54.09684
2024-05-02 08:19:01+00:00,305.4963,2.2,12.25,47.84626,-54.09684
2024-05-02 08:29:01+00:00,301.143,2.1,12.25,47.84626,-54.09684
2024-05-02 08:39:01+00:00,292.9347,2.22,12.25,47.84626,-54.09684
2024-05-02 08:49:01+00:00,287.7697,2.39,12.25,47.84626,-54.09684
2024-05-02 08:59:01+00:00,283.9097,2.51,12.25,47.84626,-54.09684
2024-05-02 09:09:01+00:00,275.9447,2.53,12.25,47.84626,-54.09684
2024-05-02 09:19:01+00:00,269.3431,2.6,12.25,47.84626,-54.09684
2024-05-02 09:29:01+00:00,266.8481,2.63,12.25,47.84626,-54.09684
2024-05-02 09:39:01+00:00,263.8131,2.68,12.25,47.84626,-54.09684
2024-05-02 09:49:01+00:00,257.0881,2.72,12.25,47.84626,-54.09684
2024-05-02 09:59:01+00:00,253.7497,2.8,12.25,47.84626,-54.09684
2024-05-02 10:09:01+00:00,252.0414,2.8,12.25,47.84626,-54.09684
2024-05-02 10:19:00+00:00,247.7331,2.8,12.25,47.84626,-54.09684
2024-05-02 10:29:00+00:00,241.8031,2.8,12.25,47.84626,-54.09684
2024-05-02 10:39:00+00:00,236.6998,2.8,12.25,47.84626,-54.09684
2024-05-02 10:49:00+00:00,235.3881,2.8,12.25,47.84626,-54.09684
2024-05-02 10:59:00+00:00,234.6597,2.8,12.25,47.84626,-54.09684
2024-05-02 11:09:00+00:00,233.6664,2.8,12.25,47.84626,-54.09684
2024-05-02 11:19:00+00:00,230.6815,2.7,12.33,47.84626,-54.09684
2024-05-02 11:29:00+00:00,229.1114,2.77,12.33,47.84626,-54.09684
2024-05-02 11:39:00+00:00,229.7464,2.79,12.33,47.84626,-54.09684
2024-05-02 11:49:00+00:00,230.7614,2.7,12.33,47.84626,-54.09684
2024-05-02 11:59:00+00:00,229.8514,2.7,12.33,47.84626,-54.09684
2024-05-02 12:09:00+00:00,228.8981,2.6,12.33,47.84626,-54.09684
2024-05-02 12:19:00+00:00,228.0664,2.5,12.41,47.84626,-54.09684
2024-05-02 12:29:00+00:00,228.3564,2.3,12.41,47.84626,-54.09684
2024-05-02 12:39:00+00:00,228.1181,2.28,12.41,47.84626,-54.09684
2024-05-02 12:49:00+00:00,227.5231,2.37,12.41,47.84626,-54.09684
2024-05-02 12:59:00+00:00,228.7231,2.57,12.41,47.84626,-54.09684
2024-05-02 13:09:00+00:00,230.0547,2.67,12.41,47.84626,-54.09684
2024-05-02 13:19:00+00:00,230.1898,2.7,12.57,47.84626,-54.09684
2024-05-02 13:29:00+00:00,230.3131,2.7,12.57,47.84626,-54.09684
2024-05-02 13:39:00+00:00,230.4948,2.7,12.57,47.84626,-54.09684
2024-05-02 13:49:00+00:00,231.2964,2.6,12.57,47.84626,-54.09684
2024-05-02 13:59:00+00:00,233.2481,2.5,12.57,47.84626,-54.09684
2024-05-02 14:09:00+00:00,233.6614,2.4,12.57,47.84626,-54.09684
2024-05-02 14:19:00+00:00,233.6698,2.35,12.57,47.84626,-54.09684
2024-05-02 14:29:00+00:00,237.0515,2.3,12.57,47.84626,-54.09684
2024-05-02 14:39:00+00:00,240.8297,2.3,12.57,47.84626,-54.09684
2024-05-02 14:49:00+00:00,241.9914,2.4,12.57,47.84626,-54.09684
2024-05-02 14:59:00+00:00,246.548,2.6,12.57,47.84626,-54.09684
2024-05-02 15:09:00+00:00,252.8448,2.3,12.57,47.84626,-54.09684
2024-05-02 15:19:00+00:00,256.1047,2.01,12.73,47.84626,-54.09684
2024-05-02 15:29:00+00:00,258.0114,2.1,12.73,47.84626,-54.09684
2024-05-02 15:39:00+00:00,264.1831,2.1,12.73,47.84626,-54.09684
2024-05-02 15:49:00+00:00,269.9164,2.1,12.73,47.84626,-54.09684
2024-05-02 15:59:00+00:00,274.9498,2.5,12.73,47.84626,-54.09684
2024-05-02 16:09:00+00:00,278.3113,2.44,12.73,47.84626,-54.09684
2024-05-02 16:19:00+00:00,281.7047,2.2,12.65,47.84626,-54.09684
2024-05-02 16:29:00+00:00,284.8897,2.2,12.65,47.84626,-54.09684
2024-05-02 16:39:00+00:00,289.9813,2.21,12.65,47.84626,-54.09684
2024-05-02 16:49:00+00:00,295.2714,2.26,12.65,47.84626,-54.09684
2024-05-02 16:59:00+00:00,297.2847,2.28,12.65,47.84626,-54.09684
2024-05-02 17:09:00+00:00,298.4431,2.3,12.65,47.84626,-54.09684
2024-05-02 17:19:00+00:00,302.5563,2.29,12.57,47.84626,-54.09684
2024-05-02 17:29:00+00:00,306.5847,2.2,12.57,47.84626,-54.09684
2024-05-02 17:39:00+00:00,307.5381,2.2,12.57,47.84626,-54.09684
2024-05-02 17:49:00+00:00,309.2013,2.2,12.57,47.84626,-54.09684
2024-05-02 17:59:00+00:00,314.8397,2.2,12.57,47.84626,-54.09684
2024-05-02 18:09:00+00:00,316.1412,2.2,12.57,47.84626,-54.09684
2024-05-02 18:19:00+00:00,314.228,2.2,12.49,47.84626,-54.09684
2024-05-02 18:29:00+00:00,315.1095,2.2,12.49,47.84626,-54.09684
2024-05-02 18:39:00+00:00,319.443,2.2,12.49,47.84626,-54.09684
2024-05-02 18:49:00+00:00,320.4647,2.17,12.49,47.84626,-54.09684
2024-05-02 18:59:00+00:00,320.3229,2.16,12.49,47.84626,-54.09684
2024-05-02 19:09:00+00:00,320.2079,2.16,12.49,47.84626,-54.09684
2024-05-02 19:19:00+00:00,318.2062,2.1,12.41,47.84626,-54.09684
2024-05-02 19:29:00+00:00,313.3247,2.1,12.41,47.84626,-54.09684
2024-05-02 19:39:00+00:00,311.3663,2.1,12.41,47.84626,-54.09684
2024-05-02 19:49:00+00:00,310.4413,2.1,12.41,47.84626,-54.09684
2024-05-02 19:59:00+00:00,305.9363,2.1,12.41,47.84626,-54.09684
2024-05-02 20:09:00+00:00,300.5664,2.14,12.41,47.84626,-54.09684
2024-05-02 20:19:00+00:00,298.1763,2.2,12.41,47.84626,-54.09684
2024-05-02 20:29:00+00:00,294.9613,2.3,12.41,47.84626,-54.09684
2024-05-02 20:39:00+00:00,288.1964,2.4,12.41,47.84626,-54.09684
2024-05-02 20:49:00+00:00,283.5113,2.4,12.41,47.84626,-54.09684
2024-05-02 20:59:00+00:00,280.0731,2.4,12.41,47.84626,-54.09684
2024-05-02 21:09:00+00:00,276.7515,2.4,12.41,47.84626,-54.09684
2024-05-02 21:19:00+00:00,271.5681,2.4,12.33,47.84626,-54.09684
2024-05-02 21:29:00+00:00,265.2715,2.39,12.33,47.84626,-54.09684
2024-05-02 21:39:00+00:00,259.9314,2.4,12.33,47.84626,-54.09684
2024-05-02 21:49:00+00:00,256.8297,2.4,12.33,47.84626,-54.09684
2024-05-02 21:59:00+00:00,254.5847,2.4,12.33,47.84626,-54.09684
2024-05-02 22:09:00+00:00,250.2064,2.4,12.33,47.84626,-54.09684
2024-05-02 22:19:00+00:00,248.0415,2.38,12.25,47.84626,-54.09684
2024-05-02 22:29:00+00:00,247.0981,2.32,12.25,47.84626,-54.09684
2024-05-02 22:39:00+00:00,244.4198,2.32,12.25,47.84626,-54.09684
2024-05-02 22:49:00+00:00,240.9798,2.35,12.25,47.84626,-54.09684
2024-05-02 22:59:00+00:00,242.2531,2.36,12.25,47.84626,-54.09684
2024-05-02 23:09:00+00:00,242.03799999999998,2.39,12.25,47.84626,-54.09684
2024-05-02 23:19:00+00:00,238.2798,2.4,12.25,47.84626,-54.09684
2024-05-02 23:29:00+00:00,232.5747,2.4,12.25,47.84626,-54.09684
2024-05-02 23:39:00+00:00,230.7531,2.4,12.25,47.84626,-54.09684
2024-05-02 23:49:00+00:00,231.3398,2.4,12.25,47.84626,-54.09684
2024-05-02 23:59:00+00:00,230.8264,2.4,12.25,47.84626,-54.09684
